Regional Weather Roundup
Issued by NWS Newport/Morehead, NC

Current Version | Previous Version | Graphics & Text | Print | Product List | Glossary On
Versions: 1 2 3 4 5 6 7 8 9 10 11 12 13 14 15 16 17 18 19 20 21 22 23 24 25 26 27 28 29 30 31 32 33 34 35 36 37 38 39 40 41 42 43 44 45 46 47 48 49 50
009 ASUS42 KMHX 101625 RWRMHX WEATHER ROUNDUP FOR EASTERN NORTH CAROLINA NATIONAL WEATHER SERVICE NEWPORT/MOREHEAD CITY NC 1100 AM EST SUN DEC 10 2017 NOTE: "FAIR" INDICATES FEW OR NO CLOUDS BELOW 12,000 FEET WITH NO SIGNIFICANT WEATHER AND/OR OBSTRUCTIONS TO VISIBILITY NCZ015>017-031-032-045>047-102-103-101700- NORTH COAST CITY SKY/WX TMP DP RH WIND PRES REMARKS EDENTON SUNNY 43 29 58 NW12G17 30.17S ELIZABETH CITY SUNNY 41 29 62 W15G23 30.15R KITTY HAWK SUNNY 41 27 57 W7 30.13R MANTEO SUNNY 41 28 58 NW14G20 30.15R $$ NCZ045>047-081-094-103-104-101700- CENTRAL COAST CITY SKY/WX TMP DP RH WIND PRES REMARKS FRISCO SUNNY 43 30 60 NW10G17 30.15R $$ NCZ095-097-098-100-101-101700- SOUTHERN COAST CITY SKY/WX TMP DP RH WIND PRES REMARKS BEAUFORT SUNNY 42 27 55 NW17 30.19S CEDAR ISLAND NOT AVBL JACKSONVILLE SUNNY 42 28 57 NW18 30.21S PINEY ISLAND N/A N/A N/A N/A W15G22 30.18R WILMINGTON SUNNY 43 24 47 NW15 30.22F $$ NCZ011>013-027>030-043-044-078>080-089-090>093-098-101700- COASTAL PLAIN CITY SKY/WX TMP DP RH WIND PRES REMARKS AHOSKIE SUNNY 39 26 59 W5 30.17S CLINTON SUNNY 41 25 53 NW7G18 30.23F ELIZABETHTOWN NOT AVBL GOLDSBORO SUNNY 42 24 49 W10 30.19S GREENVILLE SUNNY 41 23 48 NW10G16 30.20S HAVELOCK SUNNY 42 32 67 NW15 30.20S KENANSVILLE SUNNY 41 25 52 NW10G18 30.22F KINSTON SUNNY 41 25 52 NW14 30.21S NEW BERN SUNNY 40 28 62 W9 30.21R RICHLANDS SUNNY 41 26 55 W10G20 30.21F ROCKY MOUNT SUNNY 40 27 59 W8 30.19S WASHINGTON SUNNY 41 26 53 W12G17 30.19S WHITEVILLE SUNNY 42 23 47 W3 30.24S $$ AMZ130-135-150-152-154-156-158-170-250-252-270-ANZ085-086-088-633-658-670-101700- MARINE OBSERVATIONS STATION/POSITION TIME TEMP WIND PRES WAVE SWELL AIR SEA DIR/SP/G HT/PER HT/PER (UTC) (F) (DEG/KT/KT) (MB) (FT/S) (FT/S) CHESAPEAKE LIGHT NOT AVBL 64 E VA BEACH 1550 44 61 320/ 14/ 17 1019.0 6/ 8 5/ 8 DUCK 1600 40 53 300/ 12/ 15 1020.0 2 E DUCK 1600 55 N/A 4/ 8 2/11 OREGON INLET 1600 41 48 300/ 13/ 17 1020.4 13E OREGON INLT 1548 57 N/A 5/ 8 5/ 8 HATTERAS CG 1600 40 51 310/ 16/ 19 1020.8 DIAMOND BUOY 1610 44 67 320/ 14/ 19 1020.9 CAPE LOOKOUT 1600 320/ 14/ 19 1022.6 BEAUFORT LAB 1600 40 50 320/ 8/ 13 1022.3 30 SE NEW RVR IN 1608 43 66 350/ 16/ 21 1022.8 30 SE NEW RVR IN 1600 66 N/A 6/ 5 27 SE WRIGHTSVLE 1608 44 66 340/ 19/ 27 1022.7 5 SE WRIGHTSVLE 1608 42 58 330/ 16/ 23 1022.8 225 S CAPE HAT 1550 60 75 320/ 21/ 25 1019.8 11/ 8 3/14 41 SE CHARLESTON 1600 74 360/ 14/ 19 1024.4 $$

USA.gov is the U.S. government's official web portal to all federal, state and local government web resources and services.